#timestamp,LO_Frequency,Hit,StdDev 
1565164815.1,286046998.7,N
1565164835.9,286046999.3,N
1565164855.7,286046998.7,N
1565164875.6,286046996.9,N
1565164895.4,286046996.9,N
1565164915.2,286046996.9,N
1565164935.1,286046996.8,N
1565164936.0,286046996.8,N
1565164955.8,286046997.5,N
1565164975.7,286046995.1,Y
1565164995.5,286046997.1,P
1565165015.3,286046999.2,N
1565165035.2,286046997.2,P
1565165055.0,286046996.5,Y
1565165055.9,286046996.5,P
1565165075.8,286047000.2,N
1565165095.6,286047000.0,N
1565165115.4,286047000.4,N
1565165135.3,286046998.1,N
1565165155.1,286046999.6,N
1565165175.8,286046999.0,N
1565165195.7,286046999.3,N
1565165215.5,286046996.5,N
1565165235.4,286046996.5,N
1565165255.2,286047000.8,N
1565165275.0,286047001.2,N
1565165275.9,286047001.2,N
1565165295.8,286046998.1,N
1565165315.6,286047001.0,N
1565165335.5,286047002.4,N
1565165355.3,286046999.9,N
1565165375.1,286047000.6,N
1565165395.9,286047000.8,N
1565165415.7,286046998.4,N
1565165435.5,286046999.0,N
1565165455.4,286046998.7,N
1565165475.2,286046998.9,N
1565165495.1,286046996.7,N
1565165496.0,286046996.7,N
1565165515.8,286046996.9,N
1565165535.6,286046996.9,N
1565165555.5,286046996.7,N
1565165575.3,286046997.3,N
1565165595.2,286046996.7,N
1565165615.9,286046998.5,N
1565165635.6,286046998.3,N
1565165655.4,286047000.6,N
1565165675.2,286047001.0,N
1565165695.1,286047000.4,N
1565165696.0,286047000.4,N
1565165715.8,286047000.3,N
1565165735.7,286047000.7,N
1565165755.5,286047001.2,N
1565165775.3,286047000.9,N
1565165795.2,286047000.8,N
1565165815.0,286046999.8,N
1565165815.9,286046999.8,N
1565165835.8,286046999.8,N
1565165855.6,286046999.8,N
1565165875.4,286047002.4,N
1565165895.3,286047002.5,N
1565165915.1,286047002.0,N
1565165935.8,286047002.8,N
1565165955.7,286046999.8,N
1565165975.5,286047002.7,N
1565165995.4,286047002.8,N
1565166015.2,286046999.7,N
1565166035.0,286046999.7,N
1565166035.9,286046999.7,N
1565166055.8,286047002.1,N
1565166075.6,286047002.4,N
1565166095.5,286046998.5,N
1565166115.3,286046998.6,N
1565166135.1,286046998.3,N
1565166155.9,286047000.3,N
1565166175.7,286046999.9,N
1565166195.5,286046999.8,N
1565166215.4,286047000.1,N
1565166235.2,286047002.4,N
1565166255.1,286046999.9,N
1565166256.0,286046999.9,N
1565166275.8,286046999.7,N
1565166295.6,286047002.4,N
1565166315.5,286047001.7,N
1565166335.3,286047002.2,N
1565166355.2,286047001.4,N
1565166375.9,286047001.7,N
1565166395.7,286047001.7,N
1565166415.6,286047003.8,N
1565166435.4,286047001.5,N
1565166455.2,286047004.2,N
1565166475.1,286047003.2,N
1565166476.0,286047003.2,N
1565166495.8,286047004.0,N
1565166515.7,286047001.3,N
1565166535.5,286047003.9,N
1565166555.3,286047004.2,N
1565166575.2,286047004.2,N
1565166595.0,286047003.0,N
1565166595.9,286047003.0,N
1565166615.8,286047003.4,N
1565166635.6,286047004.1,N
1565166655.4,286047003.2,N
1565166675.3,286047004.2,N
1565166695.1,286047003.8,N
1565166715.8,286047004.2,N
1565166735.7,286047003.8,N
1565166755.5,286047001.5,N
1565166775.4,286047004.3,Y
1565166795.2,286047000.9,P
1565166815.0,286047000.8,N
1565166815.9,286047000.8,N
1565166835.8,286047001.0,N
1565166855.6,286047000.2,N
1565166875.5,286047000.3,N
1565166895.3,286047000.3,N
1565166915.1,286047000.7,N
1565166935.9,286046998.1,N
1565166955.7,286046999.9,N
1565166975.5,286047002.7,N
1565166995.4,286047000.0,N
1565167015.2,286047000.3,N
1565167035.1,286047000.1,N
1565167036.0,286047000.1,N
1565167055.8,286047002.4,N
1565167075.6,286047000.1,N
1565167095.5,286047000.4,N
1565167115.3,286047000.3,N
1565167135.2,286047000.5,N
1565167155.9,286047000.3,N
1565167175.7,286046999.9,N
1565167195.6,286047001.0,N
1565167215.4,286046998.3,N
1565167235.3,286046999.4,N
1565167255.1,286046998.4,N
1565167256.0,286046998.4,N
1565167275.8,286047001.0,N
1565167295.7,286046998.2,N
1565167315.5,286046998.5,N
1565167335.3,286046999.1,N
1565167355.2,286046999.3,N
1565167375.0,286047001.1,N
1565167375.9,286047001.1,N
1565167395.8,286047000.9,N
1565167415.6,286046999.8,N
1565167435.4,286047002.7,N
1565167455.3,286047000.0,N
1565167475.1,286047000.6,N
1565167495.8,286047000.5,N
1565167515.7,286047000.8,N
1565167535.5,286046999.8,N
1565167555.4,286047000.3,N
1565167575.2,286047000.0,N
1565167595.0,286047000.1,N
1565167595.9,286047000.1,N
1565167615.8,286047000.6,N
1565167635.6,286047000.5,N
1565167655.5,286046999.9,N
1565167675.3,286047000.0,N
1565167695.1,286047001.0,N
1565167715.9,286046998.6,N
1565167735.7,286047000.3,N
1565167755.5,286047000.3,N
1565167775.4,286047000.4,N
1565167795.2,286047000.6,N
1565167815.1,286047000.2,N
1565167816.0,286047000.2,N
1565167835.8,286047002.8,Y
1565167855.6,286047000.2,P
1565167875.5,286047001.1,P
1565167895.3,286047000.9,N
1565167915.2,286047000.7,N
1565167935.9,286047000.8,N
1565167955.7,286046998.8,Y
1565167975.6,286046998.3,P
1565167995.4,286046999.3,N
1565168015.3,286046998.8,N
1565168035.1,286046998.8,N
1565168036.0,286046998.8,N
1565168055.8,286046998.4,N
1565168075.7,286046998.8,N
1565168095.5,286046998.9,N
1565168115.3,286046999.3,N
1565168135.2,286046999.1,N
1565168155.0,286046999.6,N
1565168155.9,286046999.6,N
1565168175.8,286046999.6,N
1565168195.6,286046996.8,Y
1565168215.4,286046999.1,P
1565168235.3,286046998.6,P
1565168255.1,286046998.4,P
1565168275.9,286047001.1,Y
1565168295.7,286047000.7,P
1565168315.5,286046998.8,N
1565168335.4,286046999.4,N
1565168355.2,286046999.1,N
1565168375.1,286046996.8,Y
1565168376.0,286046996.8,P
1565168395.8,286047000.5,N
